KB7K Weather Reports


time (UTC)temp
C
wind
direction
speed
KPH
gust
KPH
rain 1hr
cm
rain 24hr
cm
rain mn
cm
humidity
%
barometer
mb
20260906233932 22 78 6.4 19.3 0.00 0.00 0.00 32 980.3
20260906232251 22 92 8.0 11.3 0.00 0.00 0.00 32 980.3
20260906230607 22 110 9.7 11.3 0.00 0.00 0.00 31 980.3
20260906224923 22 91 4.8 19.3 0.00 0.00 0.00 31 979.8
20260906224820 22 67 19.3 19.3 0.00 0.00 0.00 31 979.8
20260906224215 22 107 6.4 17.7 0.00 0.00 0.00 31 979.8
20260906222533 22 77 16.1 19.3 0.00 0.00 0.00 32 980.2
20260906220747 23 69 22.5 22.5 0.00 0.00 0.00 31 980.5
20260906215205 23 71 22.5 22.5 0.00 0.00 0.00 30 980.5
20260906214834 23 74 20.9 20.9 0.00 0.00 0.00 30 980.5
20260906213811 23 117 8.0 19.3 0.00 0.00 0.00 30 980.8
20260906213504 23 109 6.4 16.1 0.00 0.00 0.00 30 980.7
20260906213331 23 138 19.3 19.3 0.00 0.00 0.00 30 980.8
20260906205456 24 133 19.3 19.3 0.00 0.00 0.00 28 980.4
20260906204026 24 106 4.8 17.7 0.00 0.00 0.00 28 980.3
20260906202713 25 143 4.8 14.5 0.00 0.00 0.00 28 980.4
20260906201029 25 110 11.3 16.1 0.00 0.00 0.00 27 980.6
20260906195347 25 107 8.0 12.9 0.00 0.00 0.00 26 980.5
20260906174002 23 58 4.8 6.4 0.00 0.00 0.00 28 981.8
20260906163308 20 67 1.6 4.8 0.00 0.00 0.00 30 982.4
20260906161626 19 114 1.6 3.2 0.00 0.00 0.00 31 982.4
20260906150933 16 88 0.0 4.8 0.00 0.00 0.00 33 983.1
20260906145250 16 242 3.2 3.2 0.00 0.00 0.00 33 982.9
20260906143607 15 138 1.6 1.6 0.00 0.00 0.00 34 983.0
20260906140241 15 3 0.0 4.8 0.00 0.00 0.00 34 982.8
20260906134559 15 16 1.6 4.8 0.00 0.00 0.00 33 982.8
20260906132915 15 136 0.0 1.6 0.00 0.00 0.00 33 982.8
20260906131232 15 279 0.0 1.6 0.00 0.00 0.00 33 982.6
20260906123907 16 232 0.0 0.0 0.00 0.00 0.00 32 982.0
20260906114856 16 231 0.0 0.0 0.00 0.00 0.00 32 982.1
20260906113213 16 46 1.6 3.2 0.00 0.00 0.00 32 981.9
20260906111531 16 231 0.0 0.0 0.00 0.00 0.00 32 981.9
20260906105847 16 351 1.6 3.2 0.00 0.00 0.00 32 981.9
20260906102524 17 42 0.0 1.6 0.00 0.00 0.00 31 981.8
20260906100839 17 37 1.6 4.8 0.00 0.00 0.00 31 981.7
20260906095156 17 41 1.6 3.2 0.00 0.00 0.00 31 981.6
20260906093513 17 337 0.0 1.6 0.00 0.00 0.00 30 981.6
20260906091831 17 40 0.0 1.6 0.00 0.00 0.00 30 981.5
20260906084505 18 338 1.6 3.2 0.00 0.00 0.00 29 981.4
20260906082821 18 334 0.0 1.6 0.00 0.00 0.00 29 981.4
20260906072128 19 24 1.6 3.2 0.00 0.00 0.00 28 981.4
20260906054111 21 41 0.0 4.8 0.00 0.00 0.00 26 981.1
20260906052428 21 337 0.0 1.6 0.00 0.00 0.00 25 980.9
20260906045102 21 332 0.0 0.0 0.00 0.00 0.00 24 980.9
20260906043418 22 340 0.0 3.2 0.00 0.00 0.00 24 980.8
20260906041736 22 281 1.6 1.6 0.00 0.00 0.00 23 980.6
20260906040052 22 40 0.0 1.6 0.00 0.00 0.00 23 980.5
20260906034410 23 337 0.0 3.2 0.00 0.00 0.00 22 980.3
20260906032726 23 338 3.2 4.8 0.00 0.00 0.00 21 980.0
20260906025400 24 297 1.6 4.8 0.00 0.00 0.00 21 979.5
20260906014708 26 202 1.6 4.8 0.00 0.00 0.00 19 978.6
20260906000649 30 232 1.6 4.8 0.00 0.00 0.00 16 978.5
20260905235007 30 211 1.6 4.8 0.00 0.00 0.00 16 978.5